Weather History for Montego Bay, Jamaica

Change the Weather History Date:

Monday, December 31, 2001

  Actual Average Record
Temperature  
Mean Temperature 78 °F -  
Max Temperature 84 °F 81 °F 87 °F (2012)
Min Temperature 73 °F 73 °F 71 °F (1996)
Cooling Degree Days 14    
Growing Degree Days 28 (Base 50)    
Moisture  
Dew Point 72 °F    
Average Humidity 77    
Maximum Humidity 83    
Minimum Humidity 66    
Precipitation  
Precipitation 0.00 in - - ()
Sea Level Pressure  
Sea Level Pressure 29.95 in    
Wind  
Wind Speed 2 mph ()    
Max Wind Speed 9 mph    
Max Gust Speed -    
Visibility 6.2 miles    
Events      
Averages and records for this station are not official NWS values.
T = Trace of Precipitation, MM = Missing Value Source: Averaged Metar Reports

Daily Weather History Graph

Daily Weather History Graph

Search for Another Location

Airport:

Trip Planner

Search our weather history database for the weather conditions in past years. The results will help you decide how hot, cold, wet, or windy it might be!

Date:

Astronomy

Dec. 31, 2001 Rise Set
Actual Time 6:43 AM EST 5:46 PM EST
Civil Twilight 6:19 AM EST 6:09 PM EST
Nautical Twilight 5:52 AM EST 6:36 PM EST
Astronomical Twilight 5:25 AM EST 7:03 PM EST
Moon 7:14 PM EST (12/31) 7:51 AM EST (12/31)
Length of Visible Light 11h 49m
Length of Day
11h 02m
Full, 98% of the Moon is Illuminated
Dec 31
Full
Jan 5
Last Quarter
Jan 13
New
Jan 21
First Quarter
Jan 28
Full

Hourly Weather History & Observations

Time (EST) Temp. Heat Index Dew Point Humidity Pressure Visibility Wind Dir Wind Speed Gust Speed Precip Events Conditions
12:00 AM 75.2 °F - 69.8 °F 83% 29.95 in 6.2 mi Calm Calm - N/A   Partly Cloudy
1:00 AM 77.0 °F - 69.8 °F 78% 29.95 in 6.2 mi Calm Calm - N/A   Mostly Cloudy
2:00 AM 75.2 °F - 68.0 °F 78% 29.92 in 6.2 mi Calm Calm - N/A   Mostly Cloudy
3:00 AM 75.2 °F - 68.0 °F 78% 29.92 in 6.2 mi Calm Calm - N/A   Scattered Clouds
5:00 AM 73.4 °F - 68.0 °F 83% 29.92 in 6.2 mi Calm Calm - N/A   Partly Cloudy
7:00 AM 75.2 °F - 68.0 °F 78% 29.95 in 6.2 mi Calm Calm - N/A   Mostly Cloudy
8:00 AM 78.8 °F - 69.8 °F 74% 29.98 in 6.2 mi Calm Calm - N/A   Mostly Cloudy
9:00 AM 80.6 °F 83.9 °F 69.8 °F 70% 29.98 in 6.2 mi WSW 2.3 mph - N/A   Mostly Cloudy
10:00 AM 82.4 °F 86.3 °F 69.8 °F 66% 30.01 in 6.2 mi West 3.5 mph - N/A   Mostly Cloudy
11:00 AM 82.4 °F 86.3 °F 69.8 °F 66% 29.98 in 6.2 mi West 2.3 mph - N/A   Mostly Cloudy
12:00 PM 82.4 °F 87.2 °F 71.6 °F 70% 29.98 in 6.2 mi NNE 5.8 mph - N/A   Mostly Cloudy
1:00 PM 82.4 °F 88.2 °F 73.4 °F 74% 29.95 in 6.2 mi NNE 5.8 mph - N/A   Mostly Cloudy
2:00 PM 84.2 °F 90.9 °F 73.4 °F 70% 29.92 in 6.2 mi NNE 4.6 mph - N/A   Mostly Cloudy
3:00 PM 84.2 °F 92.3 °F 75.2 °F 74% 29.92 in 6.2 mi NE 8.1 mph - N/A   Mostly Cloudy
4:00 PM 82.4 °F 89.5 °F 75.2 °F 79% 29.92 in 6.2 mi ENE 9.2 mph - N/A   Mostly Cloudy
5:00 PM 82.4 °F 89.5 °F 75.2 °F 79% 29.92 in 6.2 mi East 8.1 mph - N/A   Mostly Cloudy
6:00 PM 82.4 °F 89.5 °F 75.2 °F 79% 29.92 in 6.2 mi ESE 5.8 mph - N/A   Mostly Cloudy
7:00 PM 80.6 °F 85.4 °F 73.4 °F 79% 29.92 in 6.2 mi East 5.8 mph - N/A   Mostly Cloudy
8:00 PM 80.6 °F 85.4 °F 73.4 °F 79% 29.95 in 6.2 mi East 1.2 mph - N/A   Mostly Cloudy
9:00 PM 78.8 °F - 73.4 °F 83% 29.95 in 6.2 mi Calm Calm - N/A   Mostly Cloudy
10:00 PM 78.8 °F - 73.4 °F 83% 29.95 in 6.2 mi ESE 3.5 mph - N/A   Mostly Cloudy
11:00 PM 78.8 °F - 73.4 °F 83% 29.95 in 6.2 mi Calm Calm - N/A   Mostly Cloudy